DW4712 Weather Reports


Display with metric or nautical units.
time (UTC)temp
F
wind
direction
speed
MPH
gust
MPH
rain 1hr
in
rain 24hr
in
rain mn
in
humidity
%
barometer
mb
20260504081546 43 0 0.0 0.0 0.00 0.00 0.00 81 1018.2
20260504044543 49 0 0.0 0.0 0.00 0.00 0.00 64 1018.3
20260504043042 49 0 0.0 0.0 0.00 0.00 0.00 62 1018.3
20260504041537 50 0 0.0 0.0 0.00 0.00 0.00 61 1018.1
20260504040111 51 0 0.0 0.0 0.00 0.00 0.00 57 1018.1
20260504034544 51 0 0.0 0.0 0.00 0.00 0.00 56 1018.1
20260504033047 51 0 0.0 0.0 0.00 0.00 0.00 57 1018.1
20260504031553 52 0 0.0 0.0 0.00 0.00 0.00 56 1018.2
20260504030044 52 0 0.0 0.0 0.00 0.00 0.00 57 1018.1
20260504024546 52 0 0.0 0.0 0.00 0.00 0.00 55 1018.2
20260504023043 52 0 0.0 0.0 0.00 0.00 0.00 54 1018.1
20260504021538 52 0 0.0 0.0 0.00 0.00 0.00 54 1017.9
20260504020038 53 0 0.0 0.0 0.00 0.00 0.00 54 1017.6
20260504014551 54 0 0.0 0.0 0.00 0.00 0.00 52 1017.5
20260504013046 53 0 0.0 0.0 0.00 0.00 0.00 53 1017.4
20260504011542 53 0 0.0 0.0 0.00 0.00 0.00 53 1017.3
20260504010042 54 0 0.0 0.0 0.00 0.00 0.00 53 1017.1
20260504004547 54 0 0.0 0.0 0.00 0.00 0.00 53 1017.2
20260504003042 55 0 0.0 0.0 0.00 0.00 0.00 50 1017.1
20260504001550 56 0 0.0 0.0 0.00 0.00 0.00 50 1017.0
20260504000043 58 0 0.0 0.0 0.00 0.00 0.00 46 1016.6
20260503234608 60 0 0.0 0.0 0.00 0.00 0.00 41 1016.7
20260503233048 61 0 0.0 2.0 0.00 0.00 0.00 38 1016.8
20260503231545 62 246 1.0 4.0 0.00 0.00 0.00 38 1016.9
20260503230044 62 269 1.0 4.0 0.00 0.00 0.00 36 1016.8
20260503224539 63 283 0.0 5.0 0.00 0.00 0.00 33 1016.9
20260503223046 63 0 2.0 6.0 0.00 0.00 0.00 35 1016.9
20260503221538 64 0 1.0 7.0 0.00 0.00 0.00 31 1017.0
20260503220045 64 276 0.0 5.0 0.00 0.00 0.00 33 1017.2
20260503214540 64 234 2.0 6.0 0.00 0.00 0.00 32 1017.3
20260503213047 64 215 1.0 4.0 0.00 0.00 0.00 33 1017.5
20260503211544 64 81 0.0 4.0 0.00 0.00 0.00 31 1017.7
20260503210043 64 267 2.0 6.0 0.00 0.00 0.00 31 1017.7
20260503204552 63 235 2.0 7.0 0.00 0.00 0.00 29 1018.0
20260503203054 63 0 0.0 6.0 0.00 0.00 0.00 28 1017.9
20260503201549 64 228 2.0 5.0 0.00 0.00 0.00 31 1018.2
20260503200053 64 199 3.0 7.0 0.00 0.00 0.00 27 1018.6
20260503194552 63 227 1.0 6.0 0.00 0.00 0.00 30 1018.7
20260503193044 64 237 2.0 5.0 0.00 0.00 0.00 26 1018.8
20260503191538 63 0 1.0 8.0 0.00 0.00 0.00 32 1019.1
20260503190035 62 0 1.0 7.0 0.00 0.00 0.00 32 1019.2
20260503184535 63 292 2.0 7.0 0.00 0.00 0.00 32 1019.3
20260503183040 61 32 2.0 6.0 0.00 0.00 0.00 34 1019.6
20260503181539 62 250 1.0 7.0 0.00 0.00 0.00 31 1019.8
20260503180057 61 0 1.0 5.0 0.00 0.00 0.00 34 1020.1
20260503174543 60 22 3.0 11.0 0.00 0.00 0.00 36 1020.4
20260503173041 60 5 2.0 7.0 0.00 0.00 0.00 30 1020.4
20260503171545 60 244 1.0 6.0 0.00 0.00 0.00 33 1020.4